EHI
0 0 0 0 0 0 0 0 0 0 0 0 0 0 0 0 0 0 0 0 0 0 0 0 0 0 0 0 0 0 0 0 0 0 0 0 0 0 0 0 0 0 0 0
0 0 0 0 0 0 0 0 0 0 0 0 0 0 0 0 0 0 0 0 0 0 0 0 0 0 0 0 0 0 0 0 0 0 0 0 0 0 0 0 0 0 0 0
0 0 0 0 0 0 0 0 0 0 0 0 0 0 0 0 0 0 0 0 0 0 0 0 0 0 0 0 0 0 0 0 0 0 0 0 0 0 0 0 0 0 0 0
0 0 0 0 0 0 0 0 0 0 0 0 0 0 0 0 0 0 0 0 0 0 0 0 0 0 0 0 0 0 0 0 0 0 0 0 0 0 0 0 0 0 0 0
0 0 0 0 0 0 0 0 0 0 0 0 0 0 0 0 0 0 0 0 0 0 0 0 0 0 0 0 0 0 0 0 0 0 0 0 0 0 0 0 0 0 0 0
0 0 0 0 0 0 0 0 0 0 0 0 0 0 0 0 0 0 0 0 0 0 0 0 0 0 0 0 0 0 0 0 0 0 0 0 0 0 0 0 0 0 0 0
0 0 0 0 0 0 0 0 0 0 0 0 0 0 0 0 0 0 0 0 0 0 0 0 0 0 0 0 0 0 0 0 0 0 0 0 0 0 0 0 0 0 0 0
0 0 0 0 0 0 0 0 0 0 0 0 0 0 0 0 0 0 0 0 0 0 0 0 0 0 0 0 0 0 0 0 0 0 0 0 0 0 0 0 0 0 0 0
0 0 0 0 0 0 0 0 0 0 0 0 0 0 0 0 0 0 0 0 0 0 0 0 0 0 0 0 0 0 0 0 0 0 0 0 0 0 0 0 0 0 0 0
0 0 0 0 0 0 0 0 0 0 0 0 0 0 0 0 0 0 0 0 0 0 0 0 0 0 0 0 0 0 0 0 0 0 0 0 0 0 0 0 0 0 0 0
0 0 0 0 0 0 0 0 0 0 0 0 0 0 0 0 0 0 0 0 0 0 0 0 0 0 0 0 0 0 0 0 0 0 0 0 0 0 0 0 0 0 0 0
0 0 0 0 0 0 0 0 0 0 0 0 0 0 0 0 0 0 0 0 0 0 0 0 0 0 0 0 0 0 0 0 0 0 0 0 0 0 0 0 0 0 0 0
0 0 0 0 0 0 0 0 0 0 0 0 0 0 0 0 0 0 0 0 0 0 0 0 0 0 0 0 0 0 0 0 0 0 0 0 0 0 0 0 0 0 0 0
0 0 0 0 0 0 0 0 0 0 0 0 0 0 0 0 0 0 0 0 0 0 0 0 0 0 0 0 0 0 0 0 0 0 0 0 0 0 0 0 0 0 0 0
0 0 0 0 0 0 0 0 0 0 0 0 0 0 0 0 0 0 0 0 0 0 0 0 0 0 0 0 0 0 0 0 0 0 0 0 0 0 0 0 0 0 0 0
0 0 0 0 0 0 0 0 0 0 0 0 0 0 0 0 0 0 0 0 0 0 0 0 0 0 0 0 0 0 0 0 0 0 0 0 0 0 0 0 0 0 0 0
0 0 0 0 0 0 0 0 0 0 0 0 0 0 0 0 0 0 0 0 0 0 0 0 0 0 0 0 0 0 0 0 0 0 0 0 0 0 0 0 0 0 0 0
0 0 0 0 0 0 0 0 0 0 0 0 0 0 0 0 0 0 0 0 0 0 0 0 0 0 0 0 0 0 0 0 0 0 0 0 0 0 0 0 0 0 0 0
0 0 0 0 0 0 0 0 0 0 0 0 0 0 0 0 0 0 0 0 0 0 0 0 0 0 0 0 0 0 0 0 0 0 0 0 0 0 0 0 0 0 0 0
0 0 0 0 0 0 0 0 0 0 0 0 0 0 0 0 0 0 0 0 0 0 0 0 0 0 0 0 0 0 0 0 0 0 0 0 0 0 0 0 0 0 0 0
0 0 0 0 0 0 0 0 0 0 0 0 0 0 0 0 0 0 0 0 0 0 0 0 0 0 0 0 0 0 0 0 0 0 0 0 0 0 0 0 0 0 0 0
0 0 0 0 0 0 0 0 0 0 0 0 0 0 0 0 0 0 0 0 0 0 0 0 0 0 0 0 0 0 0 0 0 0 0 0 0 0 0 0 0 0 0 0
0 0 0 0 0 0 0 0 0 0 0 0 0 0 0 0 0 0 0 0 0 0 0 0 0 0 0 0 0 0 0 0 0 0 0 0 0 0 0 0 0 0 0 0
0 0 0 0 0 0 0 0 0 0 0 0 0 0 0 0 0 0 0 0 0 0 0 0 0 0 0 0 0 0 0 0 0 0 0 0 0 0 0 0 0 0 0 0
0 0 0 0 0 0 0 0 0 0 0 0 0 0 0 0 0 0 0 0 0 0 0 0 0 0 0 0 0 0 0 0 0 0 0 0 0 0 0 0 0 0 0 0
0 0 0 0 0 0 0 0 0 0 0 0 0 0 0 0 0 0 0 0 0 0 0 0 0 0 0 0 0 0 0 0 0 0 0 0 0 0 0 0 0 0 0 0
0 0 0 0 0 0 0 0 0 0 0 0 0 0 0 0 0 0 0 0 0 0 0 0 0 0 0 0 0 0 0 0 0 0 0 0 0 0 0 0 0 0 0 0
Wind_Speed
6 5 3 5 6 6 8 8 8 7 8 7 5 6 6 5 4 4 5 6 6 7 7 7 6 6 5 5 4 3 3 2 3 3 3 3 3 3 4 4 4 4 4 5
5 3 4 6 7 8 9 9 10 9 11 6 5 4 5 4 3 4 6 7 7 7 7 7 7 6 6 5 5 4 3 3 3 3 3 3 3 3 3 4 4 4 4 5
4 3 4 8 7 9 7 7 7 10 8 4 4 5 5 5 5 5 6 6 7 8 7 7 7 7 6 6 5 4 4 3 3 3 3 3 3 3 3 4 3 4 4 5
3 2 7 2 2 4 6 6 7 6 5 4 5 6 6 5 4 5 6 7 7 8 8 8 7 6 6 5 4 4 4 4 3 3 3 3 3 3 4 3 3 4 4 4
3 5 7 3 1 2 4 5 5 7 7 5 4 4 3 2 3 5 6 7 7 7 8 7 7 6 5 4 4 4 4 4 4 3 3 3 3 4 3 3 3 3 4 4
4 5 6 2 1 1 2 5 1 2 4 4 3 4 2 3 5 6 6 6 6 7 6 6 6 6 5 5 4 5 5 4 4 3 3 3 4 3 3 3 3 3 3 3
6 7 6 2 1 2 4 3 2 2 3 3 4 4 5 5 6 6 6 7 6 6 5 6 6 5 5 5 5 5 5 4 4 3 3 3 3 3 3 2 2 2 2 3
4 6 6 2 3 3 3 3 2 3 3 3 4 4 5 6 6 6 6 7 6 5 6 6 5 5 5 5 5 5 4 4 4 3 3 2 3 3 2 2 2 2 2 2
5 4 2 3 3 2 2 2 3 3 4 3 3 4 5 6 6 6 6 6 6 5 6 5 5 4 5 5 5 4 4 4 4 3 3 2 2 2 2 2 2 2 2 2
4 5 3 3 3 3 3 3 3 4 3 3 4 5 6 5 6 6 6 6 5 5 6 6 5 5 5 5 5 4 4 4 3 3 3 2 2 2 2 2 2 2 2 2
5 5 4 4 4 4 3 3 3 4 4 4 4 5 5 5 6 5 5 5 5 5 5 6 6 5 5 5 4 4 4 3 3 3 3 2 2 2 3 3 3 3 3 3
5 3 3 3 3 3 3 3 3 3 4 4 3 4 5 5 5 5 5 5 5 5 5 6 6 6 6 5 4 3 3 3 3 3 2 2 2 2 3 4 5 6 5 5
3 2 3 3 3 2 2 3 3 3 3 4 4 4 4 5 4 5 5 5 5 6 6 6 6 6 6 5 4 4 4 4 3 3 3 3 3 3 3 3 4 5 5 6
2 1 2 2 2 2 2 2 2 3 3 3 3 4 4 4 5 5 5 5 5 5 5 5 5 6 6 5 5 4 4 4 4 3 3 3 3 3 3 3 3 3 4 5
2 3 3 2 2 2 2 2 2 3 3 4 3 3 4 4 5 5 5 5 5 5 5 5 5 6 6 5 5 5 4 3 3 3 3 3 3 3 3 3 3 3 3 3
2 2 2 2 2 2 2 2 2 3 4 4 4 4 4 4 5 5 4 4 4 5 5 5 5 6 6 5 5 4 3 5 5 4 3 3 3 3 3 3 3 3 3 3
2 2 3 3 3 3 3 3 4 4 4 4 5 5 5 4 4 4 5 5 4 5 5 5 5 5 5 5 5 4 3 3 5 4 3 3 3 3 3 3 3 3 3 3
4 3 4 4 4 4 4 4 4 4 4 5 5 4 4 4 4 5 5 5 5 5 5 5 5 5 5 5 4 3 3 3 3 3 3 3 3 3 3 3 3 3 3 3
3 3 3 3 3 3 4 4 4 4 4 4 4 4 4 4 5 5 4 4 4 5 5 5 7 6 5 5 5 3 3 3 3 3 3 4 3 3 2 3 3 3 3 2
2 3 2 3 3 3 3 3 3 4 4 3 3 4 4 4 4 4 4 4 4 4 5 6 5 5 4 4 5 3 3 3 3 3 3 3 3 3 3 3 3 3 3 2
3 3 3 3 3 3 3 3 3 4 4 3 3 4 4 5 4 4 4 4 4 4 5 6 4 4 4 4 4 3 3 3 3 3 3 3 3 3 3 3 3 3 3 3
3 3 3 3 3 3 3 3 3 3 3 3 4 4 4 4 4 4 4 4 4 6 5 4 4 5 5 5 3 3 3 3 3 3 3 3 3 3 3 3 3 3 3 3
3 3 3 3 3 3 3 2 3 3 3 4 4 4 4 4 3 3 4 3 3 6 5 4 5 7 7 4 3 3 3 3 3 3 3 3 3 3 3 4 3 3 3 3
2 2 3 2 2 2 3 3 3 3 3 4 4 4 4 3 3 3 3 6 7 7 4 5 7 7 6 3 3 3 3 3 3 3 3 3 3 3 3 4 4 4 4 4
2 2 2 2 2 2 3 3 3 3 3 3 3 3 3 3 3 3 3 4 6 6 4 5 7 7 4 3 3 3 3 4 4 4 4 4 4 4 4 4 4 4 4 4
2 2 2 2 2 2 2 2 2 2 2 3 3 3 3 2 3 3 3 4 5 6 5 4 4 5 3 3 4 4 4 4 4 4 4 4 5 5 4 4 5 4 4 4
2 2 2 2 2 2 2 2 3 3 3 3 4 3 3 3 3 3 4 3 4 4 4 4 4 4 4 4 4 4 4 4 4 4 4 4 4 4 5 6 5 5 4 5
Wind_Direction
277 286 258 256 247 221 222 238 244 256 262 278 291 299 306 314 324 328 329 332 332 331 330 332 332 330 325 317 315 312 302 284 278 278 271 265 260 253 249 246 246 245 244 242
268 255 259 273 260 236 238 245 248 265 270 283 300 306 305 308 315 316 321 325 327 329 328 327 326 323 319 314 312 307 300 292 293 288 280 273 269 262 255 253 251 249 248 246
262 289 273 263 243 220 223 226 226 242 261 303 301 300 304 308 313 312 317 321 324 325 322 320 319 316 313 312 310 304 299 296 293 288 282 273 271 267 262 258 257 255 252 250
262 245 243 256 66 209 221 238 232 251 286 302 297 302 298 297 299 310 316 317 318 319 318 318 316 314 311 309 305 302 301 297 294 288 282 278 270 266 268 268 261 258 258 255
224 246 266 258 180 189 223 259 238 248 273 293 311 296 278 324 322 312 312 313 312 313 313 313 315 314 311 309 306 303 299 296 295 288 281 280 274 269 268 266 265 265 264 260
218 240 252 300 56 327 216 254 172 243 280 300 294 280 312 345 321 318 317 316 314 313 314 314 317 317 310 309 310 307 304 297 292 284 277 277 278 279 278 269 267 275 279 276
230 244 262 1 43 189 224 296 0 285 281 274 261 286 317 318 317 318 319 319 319 316 317 317 319 317 311 313 312 312 309 303 299 290 280 275 277 277 276 275 276 277 277 285
218 233 254 87 141 210 289 345 315 298 293 276 278 297 303 310 316 321 323 324 324 321 320 325 327 322 315 317 318 318 313 310 308 302 293 284 278 279 275 269 270 274 282 292
217 240 359 167 209 284 326 299 300 299 301 288 292 297 304 311 315 318 320 321 324 321 320 327 331 326 316 317 321 317 314 313 312 309 302 289 276 274 274 268 264 268 266 270
253 262 268 241 262 298 303 296 305 303 295 286 287 292 302 308 312 316 319 321 323 323 322 326 331 328 318 315 316 312 313 315 314 310 304 296 282 275 274 270 262 259 262 268
256 278 294 259 256 279 291 301 306 310 305 294 292 294 299 302 308 313 317 322 323 321 319 322 326 326 327 325 321 315 313 312 311 307 303 303 297 289 283 275 270 271 268 268
240 247 249 282 312 288 271 282 292 304 312 312 298 293 300 302 307 313 317 321 321 321 321 322 326 327 330 331 325 314 311 314 311 307 302 296 296 297 282 278 284 281 280 275
278 310 282 295 311 303 277 287 296 293 294 303 307 302 301 304 310 314 316 320 319 319 320 321 324 326 330 331 325 314 308 308 305 304 300 295 292 292 298 295 283 283 284 283
279 297 277 274 292 304 305 314 318 316 312 308 305 307 306 307 310 314 317 320 319 318 318 320 321 323 327 327 323 316 309 306 303 299 296 291 290 290 290 293 296 296 297 295
253 251 262 293 309 314 324 331 330 323 323 320 313 309 309 309 310 312 315 318 318 317 319 321 320 323 328 326 321 316 311 307 306 304 300 294 291 288 286 286 287 291 295 296
260 247 248 263 271 292 305 305 298 300 308 308 308 308 309 306 305 308 313 318 316 317 319 317 317 322 325 324 321 315 310 313 314 309 304 296 289 285 284 283 284 286 288 297
217 240 242 257 264 275 278 281 283 288 295 295 299 305 307 306 307 310 316 317 310 305 306 309 315 320 322 321 317 313 314 316 319 311 304 298 291 287 286 285 285 289 291 294
243 254 248 253 255 262 277 285 286 288 287 291 298 298 296 295 297 305 312 317 316 313 315 318 317 318 320 322 317 312 312 312 313 312 310 304 298 292 289 289 289 289 294 299
257 260 265 265 260 257 265 274 281 286 289 289 289 289 290 290 293 299 305 306 304 310 320 323 322 325 322 321 320 314 313 313 314 313 312 310 310 302 296 292 293 293 296 300
274 274 276 275 272 264 269 278 282 283 284 285 284 287 291 294 295 296 297 292 293 301 308 313 318 319 319 319 321 314 312 311 311 313 312 310 309 308 301 294 292 292 294 295
282 276 271 271 279 283 277 275 273 278 285 280 272 276 284 292 293 290 288 292 306 307 307 311 314 312 313 317 319 314 313 312 311 310 309 308 307 307 307 301 295 292 292 293
273 268 268 270 274 285 289 285 278 279 283 281 278 278 283 289 293 289 278 277 293 305 311 305 305 309 317 322 318 314 311 308 306 307 306 304 302 302 304 304 300 299 295 295
276 273 271 270 273 283 294 290 282 276 275 275 274 274 275 281 283 280 288 290 293 301 304 298 305 312 318 323 312 306 305 304 301 300 299 299 298 297 296 296 295 294 293 294
281 282 284 290 287 276 283 294 295 287 283 282 278 276 274 278 279 275 280 294 302 305 302 301 311 315 319 315 303 299 297 297 296 294 294 293 293 291 290 290 290 291 289 290
281 282 283 281 274 272 280 294 296 291 293 293 294 291 282 273 274 289 293 292 298 304 302 303 308 313 314 304 299 295 293 290 292 295 293 292 290 289 287 286 285 285 285 284
286 282 280 275 274 276 279 278 281 287 291 295 303 303 299 294 290 290 291 292 294 299 300 297 301 303 301 298 295 293 292 294 296 295 291 291 290 289 286 286 287 283 282 281
297 296 295 297 292 284 280 277 279 284 286 285 292 298 302 301 297 296 295 293 295 296 296 297 296 294 293 292 291 291 290 289 288 288 288 286 285 284 284 284 284 281 280 278